Change the Weather History Date:

Wednesday, October 3, 2012

  Actual Average Record
Temperature  
Mean Temperature 80 °F -  
Max Temperature 89 °F 88 °F 93 °F (1999)
Min Temperature 72 °F 72 °F 71 °F (1996)
Cooling Degree Days 16    
Growing Degree Days 30 (Base 50)    
Moisture  
Dew Point 73 °F    
Average Humidity 83    
Maximum Humidity 94    
Minimum Humidity 57    
Precipitation  
Precipitation 0.00 in 0.19 in - ()
Sea Level Pressure  
Sea Level Pressure 30.02 in    
Wind  
Wind Speed 3 mph ()    
Max Wind Speed 12 mph    
Max Gust Speed -    
Visibility 6.6 miles    
Events Rain , Thunderstorm    
Averages and records for this station are not official NWS values.
T = Trace of Precipitation, MM = Missing Value Source: Averaged Metar Reports

Daily Weather History Graph

Daily Weather History Graph

Search for Another Location

Airport or City:

Trip Planner

Search our weather history database for the weather conditions in past years. The results will help you decide how hot, cold, wet, or windy it might be!

Date:

Astronomy

Oct. 03, 2012 Rise Set
Actual Time 6:29 AM AST 6:25 PM AST
Civil Twilight 6:07 AM AST 6:46 PM AST
Nautical Twilight 5:42 AM AST 7:12 PM AST
Astronomical Twilight 5:17 AM AST 7:37 PM AST
Moon 8:49 PM AST (10/3) 9:17 AM AST (10/3)
Length of Visible Light 12h 39m
Length of Day
11h 55m
Waning Gibbous, 89% of the Moon is Illuminated
Oct 3
Waning Gibbous
Oct 8
Last Quarter
Oct 15
New
Oct 21
First Quarter
Oct 29
Full

Hourly Weather History & Observations

Time (AST) Temp. Heat Index Dew Point Humidity Pressure Visibility Wind Dir Wind Speed Gust Speed Precip Events Conditions
12:00 AM 73.4 °F - 71.6 °F 94% 30.04 in 6.2 mi Calm Calm - N/A   Scattered Clouds
1:00 AM 73.4 °F - 71.6 °F 94% 30.01 in 6.2 mi Calm Calm - N/A   Scattered Clouds
2:00 AM 73.4 °F - 71.6 °F 94% 30.01 in 6.2 mi Calm Calm - N/A   Scattered Clouds
3:00 AM 73.4 °F - 71.6 °F 94% 30.01 in 6.2 mi Calm Calm - N/A   Scattered Clouds
4:00 AM 73.4 °F - 71.6 °F 94% 30.01 in 6.2 mi Calm Calm - N/A   Scattered Clouds
5:00 AM 73 °F - 71 °F 89% 30.01 in 9 mi NNE 4.5 mph - -   Haze
5:00 AM 73.4 °F - 69.8 °F 88% 30.01 in 6.2 mi NNE 4.6 mph - N/A   Scattered Clouds
6:00 AM 73.4 °F - 71.6 °F 94% 30.01 in 6.2 mi NNE 5.8 mph - N/A   Scattered Clouds
7:00 AM 75.2 °F - 71.6 °F 89% 30.01 in 6.2 mi NNE 6.9 mph - N/A   Scattered Clouds
8:00 AM 76 °F - 72 °F 84% 30.04 in 9 mi Calm Calm - -   Haze
8:00 AM 77.0 °F - 71.6 °F 83% 30.04 in 6.2 mi Calm Calm - N/A   Scattered Clouds
9:00 AM 80.6 °F 86.2 °F 75.2 °F 84% 30.06 in 6.2 mi NNE 6.9 mph - N/A   Scattered Clouds
10:00 AM 86.0 °F 95.1 °F 75.2 °F 70% 30.06 in 6.2 mi NE 6.9 mph - N/A   Scattered Clouds
11:00 AM 88 °F - 75 °F 57% 30.08 in 9 mi East 8.9 mph - -   Haze
11:00 AM 87.8 °F 97.6 °F 75.2 °F 66% 30.06 in 6.2 mi East 9.2 mph - N/A   Scattered Clouds
12:00 PM 89.6 °F 99.8 °F 75.2 °F 62% 30.04 in 5.0 mi SE 9.2 mph - N/A Rain Light Rain
12:15 PM 87.8 °F 95.6 °F 73.4 °F 62% 30.04 in 3.7 mi SE 11.5 mph - N/A Rain Rain
1:00 PM 82.4 °F 90.9 °F 77.0 °F 84% 30.01 in 5.0 mi East 5.8 mph - N/A Rain , Thunderstorm Light Thunderstorms and Rain
2:00 PM 80.6 °F 87.1 °F 77.0 °F 89% 30.01 in 4.3 mi NE 5.8 mph - N/A Rain , Thunderstorm Light Thunderstorms and Rain
3:00 PM 78.8 °F - 75.2 °F 89% 29.98 in 6.2 mi Calm Calm - N/A   Scattered Clouds
4:00 PM 80.6 °F 86.2 °F 75.2 °F 84% 29.98 in 6.2 mi NNE 4.6 mph - N/A Thunderstorm Thunderstorm
5:00 PM 78 °F - 73 °F 81% 29.98 in 10 mi North 4.5 mph - -   Partly Cloudy
5:00 PM 78.8 °F - 73.4 °F 83% 29.98 in 6.2 mi North 4.6 mph - N/A   Mostly Cloudy
6:00 PM 80.6 °F 85.4 °F 73.4 °F 79% 29.98 in 6.2 mi North 4.6 mph - N/A   Mostly Cloudy
7:00 PM 80.6 °F 85.4 °F 73.4 °F 79% 29.98 in 6.2 mi NNE 5.8 mph - N/A   Mostly Cloudy
8:00 PM 78 °F - 74 °F 84% 29.99 in 10 mi NE 6.7 mph - -   Partly Cloudy
8:00 PM 78.8 °F - 73.4 °F 83% 29.98 in 6.2 mi NE 5.8 mph - N/A   Mostly Cloudy
9:00 PM 77.0 °F - 71.6 °F 83% 30.01 in 6.2 mi NNE 6.9 mph - N/A   Mostly Cloudy
10:00 PM 75.2 °F - 71.6 °F 89% 30.04 in 6.2 mi NNE 5.8 mph - N/A   Mostly Cloudy
11:00 PM 76 °F - 73 °F 88% 30.04 in 10 mi NNE 6.7 mph - -   Mostly Cloudy
11:00 PM 77.0 °F - 73.4 °F 89% 30.04 in 6.2 mi NNE 5.8 mph - N/A   Scattered Clouds